[[{"header":{"parameterUnit":"m.s-1","parameterCategory":1,"la1":30.2991,"la2":30.254,"lo1":-89.0895,"lo2":-89.0444,"dy":0.0017,"dx":0.0017,"nx":28,"ny":28,"refTime":"2023-09-12T21:00:00:Z","depth":0,"parameterNumber":2,"parameterNumberName":"U-component_of_WINDS"},"data":[0,0,0,0,0,0,0,0,0,0,0,0,0,0,0,0,0,0,0,0,0,0,0,0,0,0,0,0,0,0,0,0,0,0,0,0,0,0,0,0,0,0,0,0,0,0,0,0,0,0,0,0,0,0,0,0,0,0,-1.7454,-1.7454,0,-1.7459,-1.7459,-1.7459,-1.7353,-1.735,-1.7347,-1.7344,-1.7352,-1.7354,-1.7357,0,0,0,0,0,0,0,0,0,0,0,0,0,-1.7355,-1.7358,-1.7454,-1.7454,-1.7454,-1.7459,-1.7459,-1.7459,-1.7353,-1.735,-1.7346,-1.7343,-1.7351,-1.7354,-1.7357,0,0,0,0,0,0,0,0,0,0,0,0,0,-1.7383,-1.7359,-1.7454,-1.7402,-1.7397,-1.7459,-1.7459,-1.7459,-1.7354,-1.735,-1.7345,-1.7341,-1.735,-1.7354,-1.7358,-1.747,0,0,-1.7371,-1.7373,0,0,0,0,0,0,0,0,-1.7382,-1.7387,-1.741,-1.7406,-1.7401,-1.7401,-1.7426,-1.7463,-1.7355,-1.7371,-1.7344,-1.7339,-1.7372,-1.7374,-1.7384,-1.747,-1.7471,-1.7371,-1.7374,-1.7376,-1.7377,0,0,0,0,0,0,0,-1.738,-1.7386,-1.7456,-1.741,-1.7405,-1.7379,-1.7378,-1.7433,-1.7395,-1.7369,-1.7361,-1.7363,-1.7368,-1.738,-1.7383,-1.7471,-1.7371,-1.7375,-1.7378,-1.7379,-1.7648,-1.7652,0,0,0,0,0,0,-1.7385,-1.7385,-1.7456,-1.7456,-1.738,-1.7384,-1.7383,-1.7405,-1.7394,-1.7388,-1.7367,-1.7358,-1.7375,-1.7379,-1.7383,-1.7514,-1.7376,-1.738,-1.7382,-1.7644,-1.7649,-1.7654,0,0,0,0,0,0,-1.7383,-1.7392,-1.7456,-1.7419,-1.7425,-1.739,-1.7416,-1.7407,-1.7419,-1.7392,-1.7385,-1.7386,-1.7372,-1.7377,-1.7449,-1.7512,-1.7382,-1.7386,-1.7638,-1.7645,-1.7652,-1.7776,0,0,0,0,0,0,-1.7381,-1.7392,-1.7434,-1.742,-1.7427,-1.7521,-1.742,-1.7411,-1.7427,-1.7415,-1.7409,-1.7403,-1.7369,-1.7443,-1.7453,-1.7516,-1.7389,-1.7632,-1.7641,-1.7649,-1.7766,-1.7786,-1.7803,0,0,0,0,0,-1.7378,-1.747,-1.7437,-1.7446,-1.7479,-1.7525,-1.7529,-1.7487,-1.7432,-1.7474,-1.7457,-1.7404,-1.7503,-1.7451,-1.7462,-1.7527,-1.7628,-1.7639,-1.7649,-1.7757,-1.7782,-1.7803,0,0,0,0,0,0,-1.7494,-1.7467,-1.743,-1.7521,-1.7526,-1.7507,-1.7559,-1.7514,-1.7536,-1.7525,-1.7472,-1.7471,-1.7551,-1.7546,-1.7488,-1.7634,-1.7556,-1.7569,-1.7635,-1.7658,-1.7677,-1.7677,-1.7392,0,0,0,0,0,-1.753,-1.7569,-1.7543,-1.7626,-1.763,-1.7594,-1.7613,-1.758,-1.7583,-1.7585,-1.7573,-1.7579,-1.7611,-1.7634,-1.7663,-1.7764,-1.7761,-1.7813,-1.7832,-1.7847,-1.786,-1.7912,-1.7936,-1.7688,-1.7688,-1.7688,0,0,-1.7605,-1.7595,-1.7623,-1.7649,-1.7649,-1.7691,-1.7597,-1.7646,-1.7677,-1.7593,-1.7659,-1.7651,-1.7654,-1.774,-1.7778,-1.7738,-1.7927,-1.7861,-1.7873,-1.7877,-1.7925,-1.7949,-1.797,-1.7695,-1.7693,-1.7692,0,0,-1.7763,-1.776,-1.7828,-1.7829,-1.7829,-1.7805,-1.7821,-1.7809,-1.7799,-1.7865,-1.7803,-1.7839,-1.7896,-1.79,-1.791,-1.8069,-1.8021,-1.8079,-1.8178,-1.823,-1.8249,-1.8266,-1.8323,-1.8344,-1.8091,-1.8092,-1.8092,0,-1.7857,-1.7918,-1.7868,-1.7921,-1.7934,-1.7858,-1.7926,-1.793,-1.7941,-1.7952,-1.7907,-1.7976,-1.7973,-1.806,-1.8098,-1.8108,-1.8126,-1.8081,-1.825,-1.8267,-1.8282,-1.8336,-1.8357,-1.8099,-1.8098,-1.8097,-1.8097,0,-1.8033,-1.8076,-1.813,-1.8141,-1.816,-1.822,-1.8181,-1.8206,-1.817,-1.815,-1.8218,-1.8211,-1.8236,-1.8254,-1.8221,-1.8336,-1.8311,-1.8259,-1.818,-1.8314,-1.8363,-1.8383,-1.8109,-1.8107,-1.8104,-1.8103,0,0,-1.8268,-1.8248,-1.8269,-1.8273,-1.8267,-1.8299,-1.8356,-1.8379,-1.8402,-1.8411,-1.8458,-1.8507,-1.8458,-1.8469,-1.8435,-1.8481,-1.8607,-1.8422,-1.8422,-1.8458,-1.8733,-1.8774,-1.8798,-1.8574,-1.8577,-1.858,-1.8733,0,-1.8422,-1.8517,-1.8473,-1.8573,-1.8612,-1.8539,-1.8588,-1.8591,-1.8573,-1.8604,-1.8584,-1.862,-1.8553,-1.8559,-1.8601,-1.8583,-1.8662,-1.8571,-1.8617,-1.862,-1.862,-1.8824,-1.8867,-1.9012,-1.8752,-1.8756,-1.8758,0,-1.8616,-1.8631,-1.8735,-1.8721,-1.8735,-1.878,-1.8798,-1.8828,-1.8828,-1.8812,-1.8824,-1.8779,-1.8834,-1.8754,-1.8828,-1.8768,-1.8784,-1.8778,-1.8782,-1.8786,-1.8698,-1.8835,-1.9057,-1.9079,-1.8788,-1.8786,-1.8783,0,-1.8777,-1.8824,-1.8892,-1.8897,-1.8882,-1.8915,-1.8911,-1.8906,-1.8923,-1.8938,-1.8949,-1.8971,-1.8983,-1.9002,-1.8964,-1.8909,-1.9044,-1.8961,-1.9033,-1.9034,-1.9066,-1.9065,-1.9296,-1.9075,-1.9075,-1.9074,-1.9074,0,-1.8955,-1.9022,-1.8964,-1.9006,-1.9078,-1.9027,-1.91,-1.9087,-1.9084,-1.9122,-1.9061,-1.9098,-1.9045,-1.9078,-1.9049,-1.9115,-1.9121,-1.911,-1.9102,-1.9116,-1.9118,-1.9127,-1.9117,-1.908,-1.9079,-1.9077,-1.9076,0,-1.9149,-1.9112,-1.9182,-1.9161,-1.9157,-1.9211,-1.9194,-1.9232,-1.9209,-1.9258,-1.9267,-1.9232,-1.9267,-1.923,-1.9263,-1.9243,-1.9333,-1.9309,-1.9333,-1.9326,-1.9401,-1.9395,-1.9647,-1.9677,-1.9436,-1.9438,-1.944,0,-1.9265,-1.9314,-1.9298,-1.9319,-1.9318,-1.9352,-1.9368,-1.9319,-1.9338,-1.9341,-1.9379,-1.9408,-1.9429,-1.9489,-1.9466,-1.9491,-1.9468,-1.9554,-1.9471,-1.9484,-1.947,-1.9468,-1.9473,-1.9572,-1.9575,-1.9577,-1.9579,0,-1.9476,-1.9455,-1.948,-1.9499,-1.952,-1.9533,-1.9541,-1.9561,-1.951,-1.9535,-1.9569,-1.9585,-1.9617,-1.9648,-1.9665,-1.9661,-1.9613,-1.9605,-1.9623,-1.9639,-1.9651,-1.9647,-1.938,-1.96,-1.9598,-1.9596,-1.9595,-1.9594,-1.9635,-1.9675,-1.967,-1.97,-1.97,-1.9708,-1.9743,-1.9723,-1.9751,-1.9772,-1.9742,-1.9784,-1.9782,-1.98,-1.9801,-1.9834,-1.9797,-1.9824,-1.983,-1.9838,-1.9849,-1.9645,-1.9837,-1.9836,-1.9836,-1.9835,-1.9835,0,-1.9844,-1.9836,-1.9864,-1.9876,-1.9899,-1.9849,-1.9855,-1.9878,-1.9916,-1.9917,-1.9939,-1.9978,-2.0006,-1.9985,-2.0009,-2.0039,-2.0018,-2.0047,-2.0045,-2.0045,-1.988,-1.9863,-2.0064,-2.0064,-2.0064,-2.0064,-2.0064,-2.0064,-1.9955,-2.002,-1.9998,-2.0063,-2.0054,-2.0094,-2.0102,-2.011,-2.011,-2.0156,-2.0179,-2.0164,-2.0157,-2.0179,-2.0203,-2.0196,-2.0209,-2.0247,-2.0232,-2.0079,-2.0057,-2.0035,-2.0018,-2.0249,-2.025,-2.0394,-2.0395,-2.0396]},{"header":{"parameterUnit":"m.s-1","parameterCategory":1,"la1":30.2991,"la2":30.254,"lo1":-89.0895,"lo2":-89.0444,"dy":0.0017,"dx":0.0017,"nx":28,"ny":28,"refTime":"2023-09-12T21:00:00:Z","depth":0,"parameterNumber":3,"parameterNumberName":"V-component_of_WINDS"},"data":[0,0,0,0,0,0,0,0,0,0,0,0,0,0,0,0,0,0,0,0,0,0,0,0,0,0,0,0,0,0,0,0,0,0,0,0,0,0,0,0,0,0,0,0,0,0,0,0,0,0,0,0,0,0,0,0,0,0,-3.0876,-3.0877,0,-3.0918,-3.0918,-3.0919,-3.0906,-3.0906,-3.0905,-3.0904,-3.0944,-3.0946,-3.0947,0,0,0,0,0,0,0,0,0,0,0,0,0,-3.0782,-3.0783,-3.0876,-3.0877,-3.0877,-3.0918,-3.0918,-3.0919,-3.0907,-3.0906,-3.0905,-3.0904,-3.0943,-3.0945,-3.0948,0,0,0,0,0,0,0,0,0,0,0,0,0,-3.0823,-3.0784,-3.0876,-3.0876,-3.0876,-3.0918,-3.0918,-3.0919,-3.0907,-3.0906,-3.0904,-3.0903,-3.0942,-3.0945,-3.0948,-3.0991,0,0,-3.0956,-3.0958,0,0,0,0,0,0,0,0,-3.0821,-3.0826,-3.0876,-3.0876,-3.0877,-3.0906,-3.09,-3.0943,-3.0907,-3.0895,-3.0904,-3.0902,-3.0932,-3.0936,-3.0946,-3.0993,-3.0994,-3.0957,-3.0958,-3.096,-3.096,0,0,0,0,0,0,0,-3.0818,-3.0824,-3.0893,-3.0876,-3.0877,-3.0872,-3.0877,-3.0908,-3.092,-3.0896,-3.0895,-3.0901,-3.0932,-3.0943,-3.0947,-3.0995,-3.0957,-3.0959,-3.0961,-3.0962,-3.1076,-3.1077,0,0,0,0,0,0,-3.0815,-3.0822,-3.0891,-3.0894,-3.0845,-3.0875,-3.088,-3.0898,-3.092,-3.0922,-3.0902,-3.09,-3.0939,-3.0944,-3.0948,-3.0998,-3.096,-3.0962,-3.0964,-3.1075,-3.1076,-3.1078,0,0,0,0,0,0,-3.0813,-3.0821,-3.089,-3.0858,-3.0866,-3.0878,-3.0898,-3.0899,-3.0911,-3.0924,-3.0926,-3.0911,-3.0938,-3.0944,-3.098,-3.0999,-3.0963,-3.0966,-3.1073,-3.1075,-3.1077,-3.1099,0,0,0,0,0,0,-3.081,-3.0821,-3.0838,-3.0858,-3.0868,-3.0922,-3.0899,-3.0901,-3.0916,-3.0914,-3.0934,-3.0936,-3.0938,-3.0976,-3.0983,-3.1003,-3.0968,-3.1071,-3.1074,-3.1077,-3.1097,-3.1102,-3.1106,0,0,0,0,0,-3.0807,-3.0843,-3.0839,-3.0848,-3.089,-3.0923,-3.0928,-3.0931,-3.0918,-3.0934,-3.0943,-3.0935,-3.0996,-3.098,-3.0987,-3.1008,-3.107,-3.1073,-3.1076,-3.1095,-3.1101,-3.1106,0,0,0,0,0,0,-3.0824,-3.0845,-3.0842,-3.0885,-3.0903,-3.0921,-3.0942,-3.0938,-3.0959,-3.0956,-3.0958,-3.0962,-3.0998,-3.1007,-3.0988,-3.105,-3.1031,-3.1036,-3.1043,-3.1048,-3.1053,-3.1049,-3.097,0,0,0,0,0,-3.0833,-3.0859,-3.0876,-3.0913,-3.0921,-3.0931,-3.0945,-3.0945,-3.0963,-3.097,-3.0981,-3.0997,-3.102,-3.1035,-3.1057,-3.1098,-3.1101,-3.1116,-3.1121,-3.1125,-3.1128,-3.1149,-3.1155,-3.1088,-3.1088,-3.1088,0,0,-3.0851,-3.0866,-3.0883,-3.0916,-3.093,-3.0955,-3.0937,-3.0965,-3.0983,-3.0974,-3.1008,-3.1016,-3.1035,-3.1073,-3.109,-3.1081,-3.1148,-3.1129,-3.1132,-3.1133,-3.1152,-3.1159,-3.1164,-3.109,-3.109,-3.1089,0,0,-3.0898,-3.0913,-3.0944,-3.0957,-3.0978,-3.0983,-3.0991,-3.101,-3.1015,-3.105,-3.1043,-3.1064,-3.1104,-3.1116,-3.1128,-3.1177,-3.117,-3.1184,-3.1208,-3.1227,-3.1233,-3.1237,-3.1253,-3.1259,-3.1188,-3.1188,-3.1188,0,-3.0918,-3.0957,-3.096,-3.0988,-3.1002,-3.0996,-3.1026,-3.1039,-3.1065,-3.1074,-3.1064,-3.1112,-3.1125,-3.1164,-3.1176,-3.1187,-3.1193,-3.1181,-3.1232,-3.1237,-3.1241,-3.1256,-3.1262,-3.1189,-3.1189,-3.1189,-3.1189,0,-3.0979,-3.1006,-3.1028,-3.1054,-3.1071,-3.11,-3.1106,-3.1122,-3.1121,-3.1127,-3.1161,-3.1175,-3.1198,-3.1208,-3.1207,-3.1247,-3.1241,-3.1232,-3.1213,-3.1249,-3.1262,-3.1268,-3.1191,-3.1191,-3.119,-3.119,0,0,-3.1037,-3.1064,-3.1072,-3.1082,-3.1104,-3.1124,-3.1152,-3.1176,-3.1188,-3.1206,-3.1228,-3.1262,-3.1252,-3.1265,-3.1266,-3.1283,-3.1319,-3.1271,-3.1272,-3.1278,-3.1361,-3.1367,-3.1374,-3.1315,-3.1316,-3.1317,-3.1359,0,-3.1084,-3.1134,-3.1137,-3.1181,-3.1205,-3.1198,-3.1222,-3.1237,-3.1243,-3.1263,-3.1269,-3.1292,-3.1279,-3.1287,-3.1304,-3.1311,-3.1335,-3.1308,-3.1333,-3.1334,-3.1327,-3.1381,-3.1388,-3.1427,-3.1365,-3.1365,-3.1366,0,-3.1145,-3.1165,-3.1212,-3.1228,-3.1238,-3.126,-3.128,-3.13,-3.1316,-3.1319,-3.1333,-3.133,-3.1357,-3.1338,-3.1373,-3.1355,-3.1365,-3.137,-3.1372,-3.1373,-3.1351,-3.1382,-3.144,-3.1445,-3.1375,-3.1374,-3.1374,0,-3.118,-3.1219,-3.1251,-3.1261,-3.1281,-3.1296,-3.1305,-3.132,-3.1333,-3.1351,-3.1359,-3.138,-3.139,-3.1406,-3.1408,-3.1394,-3.1443,-3.1425,-3.1444,-3.1444,-3.1454,-3.1453,-3.1512,-3.1463,-3.1463,-3.1463,-3.1463,0,-3.1231,-3.1259,-3.1267,-3.1287,-3.1317,-3.132,-3.135,-3.1358,-3.1371,-3.139,-3.1386,-3.1405,-3.1408,-3.1426,-3.1428,-3.1456,-3.1462,-3.1463,-3.1463,-3.1463,-3.1462,-3.1469,-3.1465,-3.1465,-3.1464,-3.1464,-3.1464,0,-3.1275,-3.1281,-3.1316,-3.1332,-3.1337,-3.1359,-3.1372,-3.139,-3.1395,-3.142,-3.1426,-3.1434,-3.1456,-3.146,-3.1486,-3.1487,-3.1519,-3.1517,-3.1514,-3.1513,-3.1532,-3.1529,-3.1596,-3.1604,-3.1552,-3.1552,-3.1553,0,-3.1306,-3.1327,-3.1346,-3.1359,-3.1369,-3.139,-3.1404,-3.1406,-3.142,-3.1439,-3.1454,-3.1476,-3.1493,-3.1527,-3.1535,-3.1554,-3.1551,-3.1573,-3.1554,-3.1552,-3.1549,-3.1547,-3.1548,-3.1576,-3.1577,-3.1577,-3.1577,0,-3.1359,-3.1361,-3.1381,-3.1402,-3.1418,-3.1434,-3.145,-3.146,-3.1465,-3.148,-3.1503,-3.1516,-3.1542,-3.1562,-3.1581,-3.1588,-3.1583,-3.1584,-3.1589,-3.1588,-3.1584,-3.1584,-3.1522,-3.1582,-3.1581,-3.1581,-3.1581,-3.1581,-3.1397,-3.1415,-3.143,-3.1452,-3.1463,-3.1477,-3.1495,-3.1502,-3.1521,-3.1542,-3.1543,-3.1566,-3.158,-3.1604,-3.1613,-3.1631,-3.1624,-3.1632,-3.1633,-3.1635,-3.1636,-3.1583,-3.1634,-3.1634,-3.1634,-3.1634,-3.1634,0,-3.1448,-3.1458,-3.1478,-3.1499,-3.1515,-3.151,-3.1526,-3.154,-3.1561,-3.1575,-3.1591,-3.1616,-3.1635,-3.1644,-3.1662,-3.1675,-3.1672,-3.1679,-3.1677,-3.1679,-3.1642,-3.1635,-3.1681,-3.1681,-3.1681,-3.168,-3.168,-3.168,-3.1477,-3.1507,-3.151,-3.1544,-3.1553,-3.1577,-3.1586,-3.1598,-3.1609,-3.1636,-3.1653,-3.1658,-3.1669,-3.1688,-3.1705,-3.1707,-3.1713,-3.1721,-3.1722,-3.1687,-3.1682,-3.1677,-3.167,-3.1723,-3.1723,-3.1757,-3.1757,-3.1757]}]]